Location: Newark
(12.4436°N, 0.6167°W)
Time: 06:56:58
(UTC+00:00)

deb Explorer IX - Pass Details

Date: 08 December 2019
Orbit: 548 x 1101 km, 38.8° (Epoch: 19 January)

Event Time Altitude Azimuth Distance (km) Brightness Sun altitude
Rises 13:23:00 0° 205° (SSW) 2,871 ? 48.7°
Reaches altitude 10° 13:25:30 10° 191° (SSW) 2,038 ? 48.3°
Maximum altitude 13:29:26 26° 135° (SE) 1,375 ? 47.8°
Drops below altitude 10° 13:33:51 10° 80° (E) 2,323 ? 47.2°
Sets 13:36:54 0° 68° (ENE) 3,364 ? 46.8°
